Zurück zum Katalog

STARLINK-1283

AktivKommunikationVLEO
NORAD 45389·PAYLOAD·🇺🇸 United States

Gestartet Mar 18, 2020 von Cape Canaveral Space Force Station

Loading…

Nächste Überflüge (nächste 24 Stunden)

TLE

AktuellSource: CelesTrak SupGP

Epoche: Sep 14, 2026, 12:33 UTC

1 45389C 20019AF  26257.52340278  .00135980  00000+0  48397-3 0  2570
2 45389  53.0274 252.6192 0005487  53.2746 180.4041 15.88102657    12

Verfolge STARLINK-1283 in Echtzeit mit AllMySat

Download on the App Store